YAMAL 601

Last updated on Nov. 16, 2019, 4:19 a.m. UTC

1 44307U 19031A   19318.85256751  .00000133  00000-0  00000-0 0  9990
2 44307   0.0167 324.3485 0001855 289.7068 155.5577  1.00272596  1820
UTC
Height (km)
Latitude
Longitude
Inclination
Orbital Period
UTC large
Height (km)
Speed (km/s)
/
Latitude / Longitude
Inclination (degrees)
Orbital Period (minutes)
Azimuth
Elevation
Range (km)
Doppler Factor
iOS Compass Heading
iOS Angle

Next 30 passes for location: Hong Kong

Rise time Rise Azimuth (degrees) Set time Set Azimuth (degrees) Duration Max altitude (degrees)

No matching passes for this satellites